Location: Beaver Meadows
(40.3729°N, 105.6140°W)
Time: 04:28:26
(UTC-06:00)

Iridium 67 - Visible Passes

Search period start: 30 May 2015 00:00
Search period end: 09 June 2015 00:00
Orbit: 776 x 779 km, 86.4° (Epoch: 29 May)

Date Brightness Start Highest point End Pass type
(mag) Time Alt. Az. Time Alt. Az. Time Alt. Az.
30 May 6.9 20:55:44 10° SSW 21:00:41 44° W 21:05:39 10° N visible
01 Jun 8.3 21:31:21 10° WSW 21:34:47 17° WNW 21:38:00 10° NW visible
02 Jun 7.6 20:56:19 10° SW 21:00:54 30° W 21:05:26 10° NNW visible
04 Jun 8.7 21:33:18 10° W 21:35:10 11° WNW 21:36:42 10° NW visible
05 Jun 8.2 20:57:11 10° SW 21:01:11 21° WNW 21:05:03 10° NNW visible
08 Jun 8.5 20:58:30 10° WSW 21:01:31 15° WNW 21:04:18 10° NW visible
